Flag for Canada Weather past 2 weeks in Ottawa, Ontario, Canada

Now
9 °F

Clear.


Feels Like: -9 °F
Forecast: 0 / 16 °F
Wind: 16 mph from North

Location: Ottawa Int'L. Ont.

Current Time: Mar 5, 2015 at 5:53:16 AM

Latest Report: Mar 5, 2015 at 5:00 AM


Visibility: 15 mi

Pressure: 30.16 "Hg

Humidity: 61%

Dew point: -2 °F

Location of OttawaLocation

Historic Weather in Ottawa — Graph

°F

Ottawa temperature yesterday

Maximum temperature yesterday: 36 °F (at 2:00 PM)
Minimum temperature yesterday: 18 °F (at 11:00 PM)
Average temperature yesterday: 27 °F

Past Weeks' High & Low Weather Summary

 TemperatureHumidityPressure
High36 °F (Mar 4, 2:00 PM)100% (Mar 3, 11:48 PM)30.74 "Hg (Mar 3, 11:48 PM)
Low-11 °F (Feb 23, 8:00 PM)32% (Feb 27, 3:00 PM)29.53 "Hg (Mar 4, 12:00 AM)
Average9 °F67%30.12 "Hg
* Reported Feb 18 4:00 AM — Mar 5 4:00 AM, Ottawa, Weather by CustomWeather, © 2015

Note: Actual official high and low records may vary slightly from our data, if they occured in-between our weather recording intervals... More about our weather records

Advertising

Ottawa weather history for previous 24 hours

 ConditionsComfort  
Time TempWeatherWind HumidityBarometerVisibility
4:00 AM
Thu, Mar 5
10 °FPassing clouds.17 mph56%30.12 "Hg15 mi
3:00 AM14 °FOvercast.18 mph67%30.08 "Hg15 mi
2:00 AM14 °FPassing clouds.10 mph57%30.03 "Hg15 mi
1:00 AM16 °FPassing clouds.18 mph53%30.01 "Hg15 mi
12:00 AM18 °FPartly cloudy.15 mph49%29.98 "Hg15 mi
11:00 PM
Wed, Mar 4
18 °FPassing clouds.16 mph49%29.93 "Hg15 mi
10:00 PM19 °FPassing clouds.20 mph49%29.91 "Hg15 mi
9:00 PM23 °FPassing clouds.21 mph46%29.87 "Hg15 mi
8:00 PM25 °FPassing clouds.22 mph46%29.84 "Hg15 mi
7:00 PM27 °FPassing clouds.21 mph43%29.83 "Hg15 mi
5:00 PM32 °FPartly sunny.16 mph44%29.75 "Hg15 mi
4:00 PM34 °FPartly sunny.23 mph38%29.73 "Hg15 mi
3:00 PM34 °FPartly sunny.23 mph41%29.72 "Hg15 mi
2:00 PM36 °FScattered clouds.17 mph44%29.71 "Hg15 mi
1:00 PM34 °FScattered clouds.18 mph51%29.72 "Hg15 mi
12:00 PM34 °FScattered clouds.16 mph56%29.75 "Hg15 mi
11:00 AM32 °FPartly sunny.21 mph55%29.74 "Hg15 mi
10:00 AM30 °FPartly sunny.14 mph69%29.73 "Hg15 mi
9:00 AM28 °FLight snow. Overcast.15 mph80%29.73 "Hg8 mi
8:00 AM28 °FOvercast.12 mph74%29.71 "Hg15 mi
7:00 AM27 °FPartly sunny.10 mph80%29.69 "Hg15 mi
6:00 AM27 °FOvercast.10 mph86%29.67 "Hg15 mi
5:00 AM27 °FLight snow. Overcast.6 mph86%29.65 "Hg15 mi
Weather by CustomWeather, © 2015

See weather overviewHow to use our weather pages